Find Starlink 11381

NORAD ID: 62094 Int'l Des: 2024-220 Owner: SPXS Country: US Constellation: starlink operational
LEOCIRCULAR

Live Position

Loading 3D Globe...

About Starlink 11381

Description loading...

Upcoming Passes

Passes for default location (London). Set your location on the main map for personalized predictions.

Altitude History

Loading altitude history...

Two-Line Element Set

1 62094U 24220G 26127.18422223 .00149318 00000-0 11410-2 0 9998
2 62094 42.9981 50.4152 0000333 313.4337 46.6503 15.70951138 84158
Epoch: May 7, 2026 • Age: 11 hours

Current Status

Altitude 358.4 km
Velocity 7.70 km/s
Sub-Earth Point -14.71°S, 59.12°W
Launch Date Nov 25, 2024
Age 1.4 years
Type internet

Technical Details

Classification Payload
Mass 960.00 kg
Dry Mass 910.00 kg
Total Mass 960.00 kg
Length 0.30 m
Diameter 4.10 m
Span 29.00 m
Shape Box + pan
Manufacturer SPXS
Bus Type Starlink V2MD
Phase Status In Orbit
Owner/State SPXS/US

Most Searched